Location: NovaLab Observatory
(42.8167°N, 71.2500°W)
Time: 16:09:19
(UTC-04:00)

Daily predictions for brighter satellites

Satellite Brightness Start Highest point End
(mag) Time Altitude Azimuth Time Altitude Azimuth Time Altitude Azimuth
SPOT 5 4.0 20:39:29 10° SE 20:44:10 34° ENE 20:48:58 10° N
Cosmos 1844 Rocket 3.2 20:39:46 10° S 20:44:58 39° ESE 20:50:10 10° NE
Envisat 3.4 20:41:19 10° SE 20:46:09 46° ENE 20:51:00 10° N
Cosmos 1624 Rocket 4.1 20:41:40 10° S 20:46:51 64° ESE 20:52:07 10° NNE
Coronas F rocket 1.1 20:44:56 10° S 20:47:33 69° E 20:50:12 10° NNE
NOSS 2-2 (E) 3.5 20:44:25 10° SSW 20:48:32 70° ESE 20:53:24 10° NE
Cosmos 1825 3.9 20:47:10 10° SE 20:49:39 17° E 20:52:08 10° NE
ISS -1.2 20:50:51 10° SE 20:51:16 10° SE 20:51:40 10° ESE
deb Chang Zheng 4 4.0 20:49:23 10° NNE 20:53:36 43° E 20:57:49 10° S
Cosmos 2082 Rocket 4.3 20:51:05 10° N 20:54:13 15° NE 20:57:20 10° ENE
OPS 6432 4.3 20:51:57 10° SSW 20:55:23 60° SE 20:58:28 10° NE
Cosmos 1908 Rocket 4.4 20:51:44 10° SSE 20:55:34 31° E 20:59:28 10° NNE
Cosmos 2184 Rocket 4.0 20:49:59 10° S 20:56:07 78° E 21:02:19 10° N
ERBS 2.6 20:53:21 10° NW 20:56:48 63° SW 21:00:13 10° SE
Meteor 2-3 Rocket 4.3 20:51:46 10° SSW 20:57:20 64° WNW 21:02:54 10° N
CZ-3C R/B 4.4 20:34:20 10° SW 20:57:20 20° SSW 21:04:45 10° SSE
YAOGAN 6 4.1 20:54:58 10° ESE 20:57:39 21° ENE 21:00:21 10° NNE
H-2A R/B 4.1 20:55:41 10° E 20:58:08 13° ENE 21:00:34 10° NNE
Cosmos 1408 4.1 20:55:32 10° SE 20:58:14 20° E 21:00:56 10° NE
Cosmos 1356 Rocket 3.6 20:55:20 10° SSW 20:59:33 82° WNW 21:03:52 10° N
Cosmos 1733 Rocket 3.0 20:55:12 10° S 20:59:36 78° E 21:04:01 10° N
Cosmos 1378 Rocket 4.5 20:56:00 10° NNE 20:59:50 30° ENE 21:03:28 11° SE
Cosmos 2263 Rocket 4.0 20:55:32 10° SW 21:00:45 37° WNW 21:05:59 10° N
SL-8 R/B 3.7 20:58:10 10° WSW 21:03:00 83° SSE 21:07:50 10° ENE
Cosmos 407 Rocket 3.7 20:57:50 10° NNW 21:03:03 60° ENE 21:08:16 10° SSE
BREEZE-M DEB (TANK) 4.4 20:44:49 10° WNW 21:03:47 69° NNE 21:08:15 10° E
Meteor 1-27 Rocket 4.0 21:01:48 10° N 21:07:16 52° ENE 21:12:38 10° SSE
PSLV R/B 4.3 21:05:04 10° W 21:08:15 35° SSW 21:10:49 14° SE
Meteor 2-10 Rocket 4.2 21:03:33 10° NNW 21:09:21 67° W 21:14:58 10° S
ERS-1 Rocket 3.2 21:04:25 10° S 21:09:27 73° WSW 21:14:30 10° NNW
Nimbus 7 Rocket 4.5 21:04:45 10° NNE 21:10:37 59° ESE 21:16:29 10° S
Cosmos 1452 Rocket 4.0 21:06:00 10° S 21:10:52 40° ESE 21:15:47 10° NE
Cosmos 2084 4.2 21:09:11 10° S 21:12:19 24° ESE 21:15:26 10° ENE
SPOT 1/Viking Rocket 4.4 21:08:36 12° SE 21:12:50 34° ENE 21:17:32 10° N
Cosmos 1190 Rocket 4.0 21:10:27 10° NNW 21:15:40 87° WSW 21:20:52 10° SSE
Cosmos 1782 2.9 21:15:13 10° N 21:19:15 78° W 21:23:16 10° S
USA 234 4.2 21:16:39 10° ENE 21:21:41 23° SE 21:26:41 10° S
Atlas Centaur 2 3.1 21:21:49 10° SSW 21:23:12 12° S 21:23:48 11° S
Cosmos 1939 Rocket 3.3 21:20:25 10° S 21:24:14 60° W 21:28:07 10° NNW
Cosmos 1606 2.7 21:21:11 10° N 21:25:08 71° E 21:28:25 14° SSE
H-2A R/B 2.2 21:21:35 10° S 21:25:55 73° WSW 21:30:10 10° NNW
CZ-4B R/B 4.0 21:25:00 10° NNE 21:29:35 36° E 21:33:05 15° SSE
NOSS 5 (C) 4.5 21:27:19 10° SSW 21:30:38 45° ESE 21:33:38 10° NE
Nadezhda 3 Rocket 4.1 21:37:40 10° N 21:44:04 86° W 21:50:04 12° S
Cosmos 676 Rocket 4.1 21:40:38 10° NNW 21:45:50 79° WSW 21:49:42 18° SSE
Cosmos 1184 Rocket 2.8 21:45:10 23° S 21:47:01 62° E 21:50:20 10° NNE
Okean 2 Rocket 3.2 21:45:32 19° SSE 21:48:31 56° E 21:52:51 10° NNE
CENTAUR R/B 4.2 21:42:54 10° NW 21:49:58 36° WSW 21:57:19 10° S
MetOp-B 4.2 21:46:45 15° S 21:51:14 77° WSW 21:56:37 10° NNW
Cosmos 1174 3.4 21:48:07 10° NW 21:51:21 62° WSW 21:52:28 34° S
Cosmos 1954 Rocket 4.0 21:46:52 10° NNW 21:52:06 89° WSW 21:55:30 22° SSE
CZ-4 SHROUD 4.2 21:59:35 22° SSW 22:01:12 42° W 22:04:10 10° NNW
Cosmos 1741 Rocket 4.2 21:57:10 10° NNW 22:02:19 55° ENE 22:04:49 29° SE
USA 229 DEB 4.4 21:57:19 10° NNW 22:04:07 46° NE 22:08:49 20° ESE
Intercosmos 25 2.9 22:02:34 30° S 22:04:11 70° E 22:07:21 10° NNE
USA 229 4.4 21:57:25 10° NNW 22:04:13 46° NE 22:08:55 20° ESE
ARGOS 3.1 22:01:08 24° SSE 22:04:29 86° ENE 22:09:52 10° NNW
Cosmos 2341 Rocket 4.1 21:58:35 10° SSW 22:04:54 78° W 22:11:12 10° N
ATLAS 5 CENTAUR R/B 4.0 22:00:39 10° WNW 22:05:43 28° WSW 22:10:53 11° SSW
Cosmos 1782 Rocket 3.8 22:04:17 14° SSW 22:08:04 73° W 22:12:33 10° N
Landsat 7 3.9 22:09:27 33° SE 22:11:27 60° ENE 22:16:09 10° N
Meteor 1-14 Rocket 4.3 22:08:16 25° SSE 22:11:37 61° E 22:17:08 10° NNE
Okean 3 4.1 22:08:14 10° NNW 22:12:25 54° W 22:14:59 22° SSW
Meteor 2-13 Rocket 4.4 22:07:54 13° S 22:13:24 89° W 22:19:37 10° N
COSMOS 2487 3.0 22:11:08 10° NNW 22:14:41 53° WSW 22:15:53 35° SSW
DNEPR-1 R/B 3.8 22:09:58 10° NNW 22:15:30 79° NE 22:17:21 37° SE
Timation 2 Rocket 3.8 22:10:45 10° NNW 22:16:48 85° ENE 22:19:46 32° SSE
Cosmos 1238 Rocket 3.9 22:15:27 10° NNW 22:18:19 32° W 22:20:11 19° SW
APEX 3.4 22:17:23 39° S 22:18:40 62° ESE 22:23:32 10° NNE
Cosmos 2278 Rocket 2.4 22:14:34 10° SSW 22:20:13 73° WNW 22:25:56 10° NNE
SPOT 5 4.5 22:17:34 11° SSW 22:22:09 33° W 22:26:59 10° NNW
Cosmos 1833 Rocket 3.2 22:16:54 10° NNW 22:22:19 46° ENE 22:24:36 30° ESE
Cosmos 1975 Rocket 3.7 22:18:48 10° NNW 22:22:59 49° W 22:25:16 24° SSW
Cosmos 1825 3.9 22:21:35 10° SW 22:25:00 32° WNW 22:28:29 10° NNW
CARTOSAT-1 3.7 22:24:39 44° SE 22:25:43 59° ENE 22:29:59 10° N
SL-8 Rocket 4.0 22:21:27 19° S 22:26:08 88° W 22:32:25 10° N
ISS -2.3 22:23:56 10° SW 22:25:56 35° SW 22:25:56 35° SW
Terra 1.9 22:25:43 40° SE 22:27:12 61° ENE 22:31:54 10° N
Cosmos 1844 Rocket 4.4 22:23:50 10° WSW 22:28:54 33° NW 22:33:58 10° N
Spot 4 4.2 22:29:22 38° ESE 22:30:44 50° ENE 22:35:26 10° N
Cosmos 1536 Rocket 3.6 22:31:21 10° N 22:35:50 70° E 22:36:45 53° SE
Cosmos 1420 Rocket 4.3 22:31:27 11° SSW 22:36:24 68° WNW 22:41:38 10° NNE
H-2A R/B 2.1 22:34:39 39° SSE 22:36:46 87° ENE 22:42:08 10° NNW
ASTEX 1 3.9 22:33:49 10° NNE 22:38:31 42° E 22:39:07 40° ESE
Meteor 2-8 Rocket 4.4 22:33:07 10° N 22:39:18 76° E 22:41:45 39° SSE
Cosmos 2082 Rocket 2.2 22:33:34 10° NNW 22:39:18 78° ENE 22:41:15 43° SE
Cosmos 1812 3.1 22:36:49 10° N 22:40:32 47° ENE 22:40:32 47° ENE
Cosmos 1242 Rocket 4.0 22:39:39 10° NNW 22:42:57 32° W 22:43:57 27° SW
Gbstr 26 Del rocket 4.5 22:41:46 10° NW 22:46:24 35° NNE 22:48:53 19° ENE
CZ-4C R/B 3.8 22:49:12 46° SW 22:49:48 52° W 22:53:46 10° NNW
Cosmos 614 Rocket 4.2 22:46:03 10° NNW 22:51:04 60° WSW 22:52:31 42° SSW
Cosmos 2297 3.8 22:48:46 20° SSW 22:52:53 78° WNW 22:58:40 10° NNE
Cosmos 2151 Rocket 3.9 22:52:35 40° SW 22:54:02 65° W 22:58:34 10° N
USA 234 3.1 22:58:40 10° NE 23:05:14 87° SE 23:11:47 10° SW
Cosmos 2366 rocket 4.4 23:01:48 25° SSW 23:05:28 62° W 23:11:46 10° N
Cosmos 1400 Rocket 4.5 23:10:16 24° ENE 23:10:16 24° ENE 23:12:39 10° NNE
SAR-Lupe-2 4.1 23:11:18 56° NW 23:11:18 56° NW 23:14:22 10° NNW
ALOS 2 4.4 23:11:59 21° ENE 23:12:12 21° ENE 23:15:27 10° NNE
Spot 2 3.9 23:10:53 10° NNE 23:15:18 81° WNW 23:15:27 79° WSW
Cosmos 1302 Rocket 4.5 23:17:57 45° E 23:17:57 45° E 23:22:38 10° NNE
Cosmos 1025 Rocket 3.8 23:18:04 10° N 23:21:53 41° ENE 23:21:53 41° ENE
Okean 1 Rocket 3.0 23:22:47 87° NNW 23:22:47 87° NNW 23:27:15 10° N
Okean 1-7 Rocket 3.5 23:19:15 10° N 23:23:41 86° NNW 23:23:41 86° NNW
Cosmos 1300 Rocket 3.6 23:23:43 74° W 23:23:48 74° W 23:28:16 10° N
BREEZE-M DEB (TANK) 3.9 23:25:34 10° NW 23:28:00 32° NNE 23:33:37 10° E
Cosmos 2369 Rocket 3.4 23:31:03 28° E 23:31:03 28° E 23:34:54 10° NE
Okean 1 4.0 23:26:58 10° NNW 23:30:38 48° WNW 23:30:38 48° WNW
Cosmos 1000 Rocket 4.5 23:36:31 10° N 23:42:46 78° W 23:44:01 59° SSW
CZ-2C R/B 4.4 23:44:53 10° NE 23:47:52 19° E 23:47:52 19° E
Cosmos 2239 Rocket 4.4 23:47:42 60° SSW 23:48:59 86° W 23:55:21 10° N
Cosmos 1503 Rocket 4.2 23:46:32 10° NNW 23:51:44 61° ENE 23:51:57 60° E
